Location: Clatteringshaws Loch
(55.0508°N, 4.2860°W)
Time: 11:26:30
(UTC+01:00)

Amateur Radio Satellites - All Passes

Search period start: 23 April 2014 10:56
Search period end: 24 April 2014 10:56
Location: Clatteringshaws Loch, 55.0508°N, 4.2860°W

Satellite Date Start Highest point End Downlink Frequencies (MHz)
Time Altitude Azimuth
Oscar 11 23 Apr 10:57:19 11:01:33 46° 99° (E) 11:05:46 145.825 FM, Beacon 2401.500 USB
FUNcube-1 23 Apr 10:59:31 11:02:43 20° 90° (E) 11:05:58 145.950 - 145.970 MHz USB
Sapphire 23 Apr 11:02:16 11:04:29 13° 257° (WSW) 11:06:43 437.095 MHz 1200 baud AX-25 AFSK
RS-15 23 Apr 11:11:59 11:22:42 52° 353° (N) 11:33:22 29.354 - 29.394 USB, Beacon 29.352 USB
JAS-2 23 Apr 11:27:45 11:29:47 12° 318° (NW) 11:31:53 435.800 - 435.900 CW/SSB, 435.910 FM
Saudisat 1A 23 Apr 11:57:32 12:02:01 83° 136° (SE) 12:06:30 436.775 MHz
AO-27 23 Apr 12:06:32 12:09:09 14° 45° (NE) 12:11:45 436.795 MHz FM
Oscar 19 23 Apr 12:10:17 12:14:05 21° 52° (NE) 12:17:55 437.125 CW, 437.150 USB
ITAMSAT 1 23 Apr 12:15:40 12:18:39 16° 46° (NE) 12:21:39 435.822 SSB
AO-7 23 Apr 12:18:44 12:22:58 15° 11° (N) 12:27:13 29.400 - 29.500 MHz
Oscar 16 23 Apr 12:18:51 12:22:59 25° 55° (NE) 12:27:08 437.025 USB, Beacon 2401.1428
KITSAT 1 23 Apr 12:19:30 12:27:00 43° 244° (WSW) 12:34:26 435.175 FM
Oscar 11 23 Apr 12:33:51 12:37:37 29° 299° (WNW) 12:41:22 145.825 FM, Beacon 2401.500 USB
HO-68 23 Apr 12:33:52 12:40:21 38° 307° (NW) 12:46:50 435.675 MHz FM
FUNcube-1 23 Apr 12:35:20 12:39:33 62° 290° (WNW) 12:43:50 145.950 - 145.970 MHz USB
Uribyol 2 23 Apr 13:01:05 13:05:30 30° 57° (ENE) 13:09:56 436.500 FM
TMSAT-1 23 Apr 13:07:38 13:09:48 13° 42° (NE) 13:11:59 436.925 FM
AO-Echo 23 Apr 13:18:44 13:23:10 30° 59° (ENE) 13:27:30 ?
RS-15 23 Apr 13:26:14 13:37:07 62° 25° (NNE) 13:48:04 29.354 - 29.394 USB, Beacon 29.352 USB
Saudisat 1A 23 Apr 13:37:59 13:42:04 33° 338° (NNW) 13:46:09 436.775 MHz
AO-27 23 Apr 13:42:37 13:47:40 54° 66° (ENE) 13:52:43 436.795 MHz FM
Uosat F 23 Apr 13:45:20 13:46:07 10° 40° (NE) 13:46:55 435.120 FM
Oscar 19 23 Apr 13:47:40 13:52:50 90° 72° (ENE) 13:58:05 437.125 CW, 437.150 USB
ITAMSAT 1 23 Apr 13:52:10 13:57:16 62° 68° (ENE) 14:02:23 435.822 SSB
Oscar 16 23 Apr 13:56:45 14:01:54 75° 255° (WSW) 14:07:07 437.025 USB, Beacon 2401.1428
Gurwin Techsat 1B 23 Apr 13:58:37 14:03:12 31° 58° (ENE) 14:07:48 435.225 FM
AO-7 23 Apr 14:06:36 14:13:10 28° 37° (NE) 14:19:46 29.400 - 29.500 MHz
FUNcube-1 23 Apr 14:13:30 14:15:13 12° 310° (NW) 14:16:57 145.950 - 145.970 MHz USB
JAS-1B 23 Apr 14:14:13 14:19:46 27° 52° (NE) 14:24:44 435.800 - 435.900 CW/SSB
HO-68 23 Apr 14:22:30 14:26:15 15° 331° (NNW) 14:30:01 435.675 MHz FM
ISS 23 Apr 14:37:18 14:38:11 11° 142° (SE) 14:39:04 145.800 FM
Uribyol 2 23 Apr 14:39:38 14:44:44 60° 258° (WSW) 14:49:52 436.500 FM
OPAL 23 Apr 14:40:55 14:42:44 12° 84° (E) 14:44:33 ?
TMSAT-1 23 Apr 14:43:33 14:48:35 46° 64° (ENE) 14:53:38 436.925 FM
AO-Echo 23 Apr 14:56:41 15:01:46 56° 259° (W) 15:06:42 ?
Uosat F 23 Apr 15:19:03 15:23:41 39° 62° (ENE) 15:28:20 435.120 FM
Saudisat 1A 23 Apr 15:19:07 15:22:47 24° 1° (N) 15:26:26 436.775 MHz
AO-27 23 Apr 15:22:55 15:27:28 31° 266° (W) 15:32:04 436.795 MHz FM
SO-50 23 Apr 15:28:06 15:32:11 35° 123° (ESE) 15:36:19 436.795 FM
Oscar 19 23 Apr 15:29:28 15:32:57 18° 273° (W) 15:36:28 437.125 CW, 437.150 USB
ITAMSAT 1 23 Apr 15:32:50 15:37:11 27° 268° (W) 15:41:33 435.822 SSB
Gurwin Techsat 1B 23 Apr 15:37:40 15:42:55 60° 258° (WSW) 15:48:13 435.225 FM
RS-15 23 Apr 15:39:05 15:49:53 69° 234° (SW) 16:00:53 29.354 - 29.394 USB, Beacon 29.352 USB
Oscar 16 23 Apr 15:39:24 15:42:12 15° 276° (W) 15:45:01 437.025 USB, Beacon 2401.1428
AO-7 23 Apr 15:56:35 16:04:48 71° 62° (ENE) 16:13:03 29.400 - 29.500 MHz
JAS-1B 23 Apr 16:02:35 16:09:59 87° 252° (WSW) 16:16:14 435.800 - 435.900 CW/SSB
ISS 23 Apr 16:11:09 16:14:09 31° 160° (SSE) 16:17:10 145.800 FM
OPAL 23 Apr 16:17:32 16:22:43 60° 105° (ESE) 16:27:53 ?
Uribyol 2 23 Apr 16:23:45 16:25:21 11° 279° (W) 16:26:57 436.500 FM
TMSAT-1 23 Apr 16:23:46 16:28:39 37° 264° (W) 16:33:35 436.925 FM
AO-Echo 23 Apr 16:40:49 16:41:38 10° 279° (W) 16:42:27 ?
Uosat F 23 Apr 16:57:45 17:02:30 42° 262° (W) 17:07:17 435.120 FM
Saudisat 1A 23 Apr 16:59:18 17:03:27 37° 25° (NNE) 17:07:34 436.775 MHz
Hamsat 23 Apr 16:59:32 17:02:25 18° 55° (NE) 17:05:20 145.90 MHz
SO-50 23 Apr 17:08:10 17:12:37 57° 325° (NW) 17:17:09 436.795 FM
Gurwin Techsat 1B 23 Apr 17:22:13 17:24:04 12° 279° (W) 17:25:54 435.225 FM
UOSAT-12 23 Apr 17:27:22 17:31:28 33° 122° (ESE) 17:35:40 437.025 FM, 437.400 FM
ISS 23 Apr 17:47:17 17:50:31 47° 180° (S) 17:53:46 145.800 FM
AO-7 23 Apr 17:50:39 17:58:12 38° 265° (W) 18:05:50 29.400 - 29.500 MHz
RS-15 23 Apr 17:52:25 18:00:12 23° 260° (W) 18:08:07 29.354 - 29.394 USB, Beacon 29.352 USB
HO-68 23 Apr 17:52:44 17:55:51 13° 24° (NNE) 17:58:58 435.675 MHz FM
JAS-1B 23 Apr 17:56:08 18:01:26 21° 272° (W) 18:06:12 435.800 - 435.900 CW/SSB
OPAL 23 Apr 17:56:49 18:01:22 31° 305° (NW) 18:05:55 ?
JAS-2 23 Apr 18:15:57 18:20:51 37° 61° (ENE) 18:25:34 435.800 - 435.900 CW/SSB, 435.910 FM
Hamsat 23 Apr 18:33:40 18:37:54 82° 256° (WSW) 18:42:14 145.90 MHz
Saudisat 1A 23 Apr 18:38:57 18:43:23 68° 227° (SW) 18:47:45 436.775 MHz
SO-67 23 Apr 18:42:27 18:45:28 28° 65° (ENE) 18:48:30 435.3500 MHz FM
SO-50 23 Apr 18:50:08 18:54:01 27° 349° (NNW) 18:57:58 436.795 FM
STRAND 1 23 Apr 19:03:03 19:06:57 22° 89° (E) 19:10:49 ?
UOSAT-12 23 Apr 19:06:51 19:11:26 62° 324° (NW) 19:16:08 437.025 FM, 437.400 FM
ISS 23 Apr 19:23:53 19:26:53 30° 200° (SSW) 19:29:53 145.800 FM
HO-68 23 Apr 19:35:24 19:41:32 32° 49° (NE) 19:47:42 435.675 MHz FM
JAS-2 23 Apr 20:00:45 20:05:59 45° 261° (W) 20:10:59 435.800 - 435.900 CW/SSB, 435.910 FM
Hamsat 23 Apr 20:12:48 20:14:39 13° 276° (W) 20:16:32 145.90 MHz
SO-67 23 Apr 20:15:25 20:18:35 31° 264° (W) 20:21:47 435.3500 MHz FM
Saudisat 1A 23 Apr 20:19:58 20:22:13 14° 248° (WSW) 20:24:28 436.775 MHz
Oscar 11 23 Apr 20:25:12 20:27:57 17° 54° (NE) 20:30:42 145.825 FM, Beacon 2401.500 USB
SO-50 23 Apr 20:31:51 20:35:48 28° 13° (NNE) 20:39:48 436.795 FM
STRAND 1 23 Apr 20:41:36 20:46:43 75° 290° (WNW) 20:51:48 ?
UOSAT-12 23 Apr 20:48:19 20:52:24 29° 347° (NNW) 20:56:31 437.025 FM, 437.400 FM
ISS 23 Apr 21:02:14 21:02:51 10° 219° (SW) 21:03:27 145.800 FM
MaSat-1 23 Apr 21:07:57 21:09:39 16° 115° (ESE) 21:11:18 437.345 MHz
HO-68 23 Apr 21:21:31 21:28:41 82° 251° (WSW) 21:35:55 435.675 MHz FM
Oscar 11 23 Apr 21:59:14 22:03:34 88° 74° (ENE) 22:07:57 145.825 FM, Beacon 2401.500 USB
FUNcube-1 23 Apr 22:03:00 22:06:52 38° 65° (ENE) 22:10:44 145.950 - 145.970 MHz USB
SO-50 23 Apr 22:12:35 22:17:10 60° 36° (NE) 22:21:48 436.795 FM
STRAND 1 23 Apr 22:21:50 22:25:11 18° 311° (NW) 22:28:32 ?
UOSAT-12 23 Apr 22:29:42 22:33:46 28° 11° (N) 22:37:52 437.025 FM, 437.400 FM
MaSat-1 23 Apr 22:45:29 22:47:49 32° 313° (NW) 22:50:06 437.345 MHz
PCSat 23 Apr 23:10:18 23:12:31 13° 103° (ESE) 23:14:44 145.825 MHz
HO-68 23 Apr 23:12:11 23:17:31 22° 274° (W) 23:22:53 435.675 MHz FM
Oscar 11 23 Apr 23:38:00 23:40:26 15° 274° (W) 23:42:52 145.825 FM, Beacon 2401.500 USB
FUNcube-1 23 Apr 23:39:41 23:43:24 31° 265° (W) 23:47:08 145.950 - 145.970 MHz USB
SO-50 23 Apr 23:53:25 23:57:35 34° 237° (WSW) 00:01:48 436.795 FM
Sapphire 24 Apr 00:06:03 00:10:40 29° 114° (ESE) 00:15:18 437.095 MHz 1200 baud AX-25 AFSK
UOSAT-12 24 Apr 00:10:07 00:14:48 56° 34° (NE) 00:19:27 437.025 FM, 437.400 FM
OPAL 24 Apr 00:26:05 00:28:22 13° 39° (NE) 00:30:39 ?
PCSat 24 Apr 00:49:33 00:54:51 58° 124° (ESE) 01:00:11 145.825 MHz
KITSAT 1 24 Apr 01:05:00 01:08:41 14° 97° (E) 01:12:22 435.175 FM
Sapphire 24 Apr 01:48:18 01:53:44 72° 315° (NW) 01:59:11 437.095 MHz 1200 baud AX-25 AFSK
UOSAT-12 24 Apr 01:50:29 01:54:53 38° 236° (SW) 01:59:14 437.025 FM, 437.400 FM
AO-27 24 Apr 01:50:47 01:52:03 11° 81° (E) 01:53:19 436.795 MHz FM
Oscar 19 24 Apr 01:52:42 01:56:29 20° 88° (E) 02:00:14 437.125 CW, 437.150 USB
ITAMSAT 1 24 Apr 01:59:26 02:01:42 13° 83° (E) 02:03:58 435.822 SSB
OPAL 24 Apr 02:01:17 02:06:07 46° 61° (ENE) 02:11:03 ?
Oscar 16 24 Apr 02:01:35 02:05:47 24° 90° (E) 02:09:58 437.025 USB, Beacon 2401.1428
PCSat 24 Apr 02:33:20 02:38:30 44° 326° (NW) 02:43:43 145.825 MHz
Uribyol 2 24 Apr 02:45:10 02:49:42 29° 93° (E) 02:54:12 436.500 FM
KITSAT 1 24 Apr 02:54:28 03:02:14 52° 119° (ESE) 03:10:01 435.175 FM
TMSAT-1 24 Apr 02:55:05 02:55:35 10° 79° (E) 02:56:06 436.925 FM
AO-Echo 24 Apr 02:56:58 03:01:05 28° 93° (E) 03:05:06 ?
AO-27 24 Apr 03:27:37 03:32:45 58° 102° (ESE) 03:37:51 436.795 MHz FM
Oscar 19 24 Apr 03:31:15 03:36:30 83° 288° (WNW) 03:41:43 437.125 CW, 437.150 USB
Sapphire 24 Apr 03:33:18 03:38:01 29° 339° (NNW) 03:42:46 437.095 MHz 1200 baud AX-25 AFSK
ITAMSAT 1 24 Apr 03:37:04 03:42:15 66° 103° (ESE) 03:47:24 435.822 SSB
OPAL 24 Apr 03:40:26 03:45:08 37° 261° (W) 03:49:56 ?
Oscar 16 24 Apr 03:40:27 03:45:39 69° 291° (WNW) 03:50:49 437.025 USB, Beacon 2401.1428
JAS-1B 24 Apr 03:40:31 03:43:23 14° 83° (E) 03:46:16 435.800 - 435.900 CW/SSB
Gurwin Techsat 1B 24 Apr 03:46:35 03:51:24 33° 94° (E) 03:56:10 435.225 FM
AO-7 24 Apr 03:51:57 03:55:43 13° 78° (ENE) 03:59:28 29.400 - 29.500 MHz
PCSat 24 Apr 04:18:51 04:23:14 24° 351° (N) 04:27:39 145.825 MHz
Uribyol 2 24 Apr 04:24:25 04:29:30 56° 294° (WNW) 04:34:34 436.500 FM
TMSAT-1 24 Apr 04:31:34 04:36:47 54° 100° (E) 04:41:58 436.925 FM
AO-Echo 24 Apr 04:35:30 04:40:11 52° 293° (WNW) 04:44:44 ?
KITSAT 1 24 Apr 04:49:31 04:57:36 64° 324° (NW) 05:05:42 435.175 FM
STRAND 1 24 Apr 04:49:37 04:52:31 15° 47° (NE) 04:55:26 ?
Uosat F 24 Apr 04:57:52 05:02:30 36° 96° (E) 05:07:06 435.120 FM
AO-27 24 Apr 05:07:33 05:12:03 31° 302° (WNW) 05:16:33 436.795 MHz FM
Oscar 19 24 Apr 05:11:30 05:15:11 20° 309° (NW) 05:18:53 437.125 CW, 437.150 USB
ITAMSAT 1 24 Apr 05:17:06 05:21:25 27° 304° (NW) 05:25:43 435.822 SSB
Sapphire 24 Apr 05:18:44 05:23:04 23° 5° (N) 05:27:24 437.095 MHz 1200 baud AX-25 AFSK
Oscar 16 24 Apr 05:20:54 05:24:11 17° 312° (NW) 05:27:28 437.025 USB, Beacon 2401.1428
MaSat-1 24 Apr 05:22:59 05:25:42 51° 50° (NE) 05:28:50 437.345 MHz
Gurwin Techsat 1B 24 Apr 05:26:28 05:31:37 51° 295° (WNW) 05:36:44 435.225 FM
JAS-1B 24 Apr 05:29:35 05:35:18 73° 105° (ESE) 05:41:09 435.800 - 435.900 CW/SSB
AO-7 24 Apr 05:42:34 05:50:41 52° 101° (ESE) 05:58:46 29.400 - 29.500 MHz
PCSat 24 Apr 06:03:42 06:08:19 27° 17° (NNE) 06:12:55 145.825 MHz
Uribyol 2 24 Apr 06:05:17 06:08:01 15° 315° (NW) 06:10:45 436.500 FM
RS-15 24 Apr 06:11:44 06:21:28 37° 110° (ESE) 06:30:58 29.354 - 29.394 USB, Beacon 29.352 USB
TMSAT-1 24 Apr 06:11:50 06:16:33 33° 301° (WNW) 06:21:15 436.925 FM
Hamsat 24 Apr 06:13:57 06:15:53 13° 84° (E) 06:17:50 145.90 MHz
AO-Echo 24 Apr 06:16:03 06:17:57 12° 315° (NW) 06:19:51 ?
STRAND 1 24 Apr 06:25:48 06:30:50 62° 68° (ENE) 06:35:53 ?
Uosat F 24 Apr 06:36:40 06:41:26 44° 297° (WNW) 06:46:09 435.120 FM
KITSAT 1 24 Apr 06:46:55 06:54:28 40° 351° (N) 07:02:02 435.175 FM
JAS-2 24 Apr 07:01:28 07:04:49 16° 86° (E) 07:08:19 435.800 - 435.900 CW/SSB, 435.910 FM
MaSat-1 24 Apr 07:01:59 07:03:52 16° 246° (WSW) 07:05:54 437.345 MHz
Sapphire 24 Apr 07:02:51 07:07:55 38° 30° (NNE) 07:12:58 437.095 MHz 1200 baud AX-25 AFSK
Gurwin Techsat 1B 24 Apr 07:07:56 07:10:31 14° 316° (NW) 07:13:05 435.225 FM
JAS-1B 24 Apr 07:20:58 07:25:36 26° 308° (NW) 07:30:15 435.800 - 435.900 CW/SSB
SO-67 24 Apr 07:33:42 07:35:28 13° 88° (E) 07:37:14 435.3500 MHz FM
AO-7 24 Apr 07:35:36 07:43:37 55° 304° (NW) 07:51:37 29.400 - 29.500 MHz
PCSat 24 Apr 07:47:22 07:52:46 60° 41° (NE) 07:58:08 145.825 MHz
Hamsat 24 Apr 07:48:14 07:52:38 79° 104° (ESE) 07:57:01 145.90 MHz
STRAND 1 24 Apr 08:06:11 08:10:27 26° 268° (W) 08:14:43 ?
Uosat F 24 Apr 08:17:28 08:19:06 12° 318° (NW) 08:20:43 435.120 FM
RS-15 24 Apr 08:21:30 08:32:42 90° 316° (NW) 08:43:43 29.354 - 29.394 USB, Beacon 29.352 USB
HO-68 24 Apr 08:43:11 08:46:33 14° 79° (E) 08:49:54 435.675 MHz FM
KITSAT 1 24 Apr 08:44:01 08:51:47 45° 20° (NNE) 08:59:30 435.175 FM
JAS-2 24 Apr 08:45:23 08:50:47 80° 105° (ESE) 08:56:42 435.800 - 435.900 CW/SSB, 435.910 FM
Sapphire 24 Apr 08:46:21 08:51:47 72° 233° (SW) 08:57:10 437.095 MHz 1200 baud AX-25 AFSK
SO-67 24 Apr 09:05:34 09:09:05 69° 287° (WNW) 09:12:34 435.3500 MHz FM
Hamsat 24 Apr 09:25:05 09:28:09 19° 304° (NW) 09:31:13 145.90 MHz
AO-7 24 Apr 09:28:51 09:34:49 23° 329° (NNW) 09:40:49 29.400 - 29.500 MHz
PCSat 24 Apr 09:31:04 09:36:02 37° 243° (WSW) 09:40:58 145.825 MHz
Oscar 11 24 Apr 09:42:11 09:43:12 11° 83° (E) 09:44:13 145.825 FM, Beacon 2401.500 USB
HO-68 24 Apr 10:28:53 10:35:58 56° 102° (ESE) 10:43:00 435.675 MHz FM
Sapphire 24 Apr 10:31:02 10:34:20 17° 254° (WSW) 10:37:38 437.095 MHz 1200 baud AX-25 AFSK
JAS-2 24 Apr 10:31:18 10:35:30 24° 306° (NW) 10:39:58 435.800 - 435.900 CW/SSB, 435.910 FM
Saudisat 1A 24 Apr 10:31:36 10:35:24 28° 121° (ESE) 10:39:13 436.775 MHz
KITSAT 1 24 Apr 10:39:56 10:48:07 88° 46° (NE) 10:56:14 435.175 FM
SO-67 24 Apr 10:41:07 10:41:34 10° 306° (NW) 10:42:01 435.3500 MHz FM
